Regional Weather Roundup
Issued by NWS Midland/Odessa, TX

Skip options and go directly to product.
Home | Oldest Version | Previous Version | Current Version | All | Text Only | Save Text | Print | Product List | Glossary Off

Skip product version selection by date and time.   

008
ASUS44 KMAF 272101
RWRMAF
MIDLAND AREA WEATHER ROUNDUP
NATIONAL WEATHER SERVICE MIDLAND TX
400 PM CDT FRI MAR 27 2015

...IN SOUTHWEST TEXAS AND SOUTHEAST NEW MEXICO...

CITY           SKY/WX    TMP DP  RH WIND       PRES   REMARKS
ALPINE         SUNNY     74  28  18 SW12G21   30.28F
ANDREWS        FAIR      77  28  16 SW14      30.14F
ARTESIA        SUNNY     79  25  13 VRB7      30.12F
BIG SPRING     SUNNY     81  28  14 SW13G21   30.15F
CARLSBAD       SUNNY     79  28  15 SE9       30.10F
DRYDEN           N/A     80  29  15 W10       30.13F
FORT STOCKTON  SUNNY     80  22  11 VRB7      30.13F
GUAD PASS      SUNNY     72  28  19 SW24G35   30.24F
HOBBS          SUNNY     77  23  13 W10       30.13F
MARFA          SUNNY     72  25  17 W7        30.25F
MIDLAND AIRPK  SUNNY     77  28  16 SW9G20    30.14F
MIDLAND INTL   SUNNY     77  29  17 SW14      30.13F
ODESSA         SUNNY     77  26  15 W13       30.14F
PECOS          SUNNY     81  32  16 W9G17     30.11F
PRESIDIO       FAIR      76  32  20 SE5       30.18F
SEMINOLE       SUNNY     78  26  15 W13G18    30.12F
SNYDER         SUNNY     74  33  22 SE7       30.14F
WINK           SUNNY     80  26  13 W10       30.10F
$$
...OTHER STATIONS IN TEXAS...

CITY           SKY/WX    TMP DP  RH WIND       PRES   REMARKS
ABILENE        SUNNY     74  30  19 NW6       30.14F
AMARILLO       SUNNY     72  26  18 W8        30.14F
AUSTIN         MOSUNNY   79  38  22 N12       30.11F
BROWNSVILLE    SUNNY     78  39  24 NW6       30.16F
CORPUS CHRISTI MOSUNNY   77  42  28 W8        30.14F
DALLAS FTW     PTSUNNY   69  41  36 NE14      30.14F
DEL RIO        SUNNY     81  33  17 S10       30.12F
EL PASO        SUNNY     78  21  12 SW12      30.18F
HOUSTON INT    MOSUNNY   78  35  21 NW14G23   30.08F
LUBBOCK        MOSUNNY   76  26  15 VRB5      30.12F
SAN ANGELO     SUNNY     78  31  17 SW13      30.12F
SAN ANTONIO    SUNNY     79  36  21 SW13      30.13F
WACO           SUNNY     74  41  30 N13G18    30.12F
WICHITA FALLS  NOT AVBL
$$
...OTHER LOCATIONS IN NEW MEXICO...

CITY           SKY/WX    TMP DP  RH WIND       PRES   REMARKS
ALAMAGORDO     SUNNY     75  19  12 W7        30.19F
ALBUQUERQUE    SUNNY     73  21  14 SW8       30.20F
CANNON AFB     NOT AVBL
CLOVIS         SUNNY     72  28  20 SW5       30.14F
HOLLOMAN AFB   NOT AVBL
ROSWELL        SUNNY     80  26  13 VRB3      30.11F
RUIDOSO        SUNNY     66  16  14 NW16      30.30F
SANTA FE       SUNNY     66  18  15 CALM      30.22F
TRUTH OR CONSE SUNNY     75  17  11 S9        30.19F
TUCUMCARI      SUNNY     73  22  14 MISG      30.12F
$$

USA.gov is the U.S. government's official web portal to all federal, state and local government web resources and services.